Ironwood, MI

3:51 AM CDT on October 01, 2016 (GMT -0500)
Gogebic-Iron County

Weather History for KIWD - July, 2013

Change the Weather History Date:

Friday, July 19, 2013

  Actual Average Record
Temperature  
Mean Temperature 72 °F -  
Max Temperature 82 °F 74 °F 87 °F (1998)
Min Temperature 62 °F 54 °F 35 °F (2000)
Cooling Degree Days 7    
Growing Degree Days 22 (Base 50)    
Moisture  
Dew Point 63 °F    
Average Humidity 71    
Maximum Humidity 94    
Minimum Humidity 47    
Precipitation  
Precipitation 0.00 in - - ()
Sea Level Pressure  
Sea Level Pressure 29.71 in    
Wind  
Wind Speed 12 mph (West)    
Max Wind Speed 23 mph    
Max Gust Speed 31 mph    
Visibility 10 miles    
Events Thunderstorm    
Averages and records for this station are not official NWS values.
T = Trace of Precipitation, MM = Missing Value Source: NWS Daily Summary

Daily Weather History Graph

Daily Weather History Graph

Search for Another Location

Airport or City:

Trip Planner

Search our weather history database for the weather conditions in past years. The results will help you decide how hot, cold, wet, or windy it might be!

Date:

Astronomy

Jul. 19, 2013 Rise Set
Actual Time 5:26 AM CDT 8:46 PM CDT
Civil Twilight 4:49 AM CDT 9:23 PM CDT
Nautical Twilight 4:01 AM CDT 10:11 PM CDT
Astronomical Twilight 2:59 AM CDT 11:12 PM CDT
Moon 5:48 PM CDT (7/19) 2:09 AM CDT (7/19)
Length of Visible Light 16h 33m
Length of Day
15h 19m
Waxing Gibbous, 87% of the Moon is Illuminated
Jul 19
Waxing Gibbous
Jul 22
Full
Jul 29
Last Quarter
Aug 6
New
Aug 14
First Quarter

Hourly Weather History & Observations

Time (CDT) Temp. Heat Index Dew Point Humidity Pressure Visibility Wind Dir Wind Speed Gust Speed Precip Events Conditions
12:15 AM 82.4 °F 85.4 °F 68.0 °F 62% 29.66 in 10.0 mi SW 12.7 mph 20.7 mph N/A   Clear
12:35 AM 80.6 °F 83.2 °F 68.0 °F 65% 29.66 in 10.0 mi SW 15.0 mph 25.3 mph N/A   Clear
12:55 AM 82.4 °F 85.4 °F 68.0 °F 62% 29.65 in 10.0 mi SW 15.0 mph 25.3 mph N/A   Clear
1:15 AM 82.4 °F 85.4 °F 68.0 °F 62% 29.63 in 10.0 mi SW 16.1 mph 25.3 mph N/A   Clear
1:35 AM 80.6 °F 83.2 °F 68.0 °F 65% 29.62 in 10.0 mi SW 18.4 mph 26.5 mph N/A   Clear
1:55 AM 80.6 °F 83.2 °F 68.0 °F 65% 29.61 in 10.0 mi SW 13.8 mph 20.7 mph N/A   Scattered Clouds
2:15 AM 80.6 °F 83.2 °F 68.0 °F 65% 29.62 in 10.0 mi West 23.0 mph 31.1 mph N/A Thunderstorm Mostly Cloudy
2:35 AM 69.8 °F - 64.4 °F 83% 29.67 in 2.0 mi NW 15.0 mph 27.6 mph N/A Thunderstorm Thunderstorm
2:55 AM 69.8 °F - 66.2 °F 88% 29.65 in 10.0 mi SSW 12.7 mph 18.4 mph N/A Thunderstorm Thunderstorm
3:15 AM 69.8 °F - 66.2 °F 88% 29.63 in 10.0 mi SW 12.7 mph - N/A   Mostly Cloudy
3:35 AM 71.6 °F - 68.0 °F 88% 29.62 in 10.0 mi SW 12.7 mph 19.6 mph N/A   Scattered Clouds
3:55 AM 71.6 °F - 68.0 °F 88% 29.62 in 10.0 mi SW 8.1 mph - N/A   Partly Cloudy
4:15 AM 71.6 °F - 69.8 °F 94% 29.61 in 10.0 mi WSW 10.4 mph - N/A   Mostly Cloudy
4:35 AM 73.4 °F - 69.8 °F 88% 29.62 in 10.0 mi West 8.1 mph - N/A   Mostly Cloudy
4:55 AM 73.4 °F - 69.8 °F 88% 29.62 in 10.0 mi West 11.5 mph - N/A   Clear
5:15 AM 73.4 °F - 68.0 °F 83% 29.62 in 10.0 mi West 10.4 mph - N/A   Clear
5:35 AM 71.6 °F - 68.0 °F 88% 29.63 in 10.0 mi WSW 11.5 mph - N/A   Clear
5:55 AM 71.6 °F - 68.0 °F 88% 29.63 in 10.0 mi West 9.2 mph - N/A   Clear
6:15 AM 71.6 °F - 68.0 °F 88% 29.64 in 10.0 mi West 8.1 mph - N/A   Clear
6:35 AM 71.6 °F - 68.0 °F 88% 29.64 in 10.0 mi WSW 6.9 mph - N/A   Clear
6:55 AM 73.4 °F - 69.8 °F 88% 29.64 in 10.0 mi WSW 8.1 mph - N/A   Partly Cloudy
7:15 AM 73.4 °F - 69.8 °F 88% 29.65 in 10.0 mi WSW 8.1 mph - N/A   Mostly Cloudy
7:35 AM 73.4 °F - 69.8 °F 88% 29.65 in 10.0 mi WSW 8.1 mph - N/A   Mostly Cloudy
7:55 AM 75.2 °F - 69.8 °F 83% 29.65 in 10.0 mi West 10.4 mph - N/A   Mostly Cloudy
8:15 AM 75.2 °F - 69.8 °F 83% 29.66 in 10.0 mi WNW 15.0 mph 19.6 mph N/A   Partly Cloudy
8:35 AM 75.2 °F - 69.8 °F 83% 29.66 in 10.0 mi WNW 15.0 mph - N/A   Mostly Cloudy
8:55 AM 73.4 °F - 69.8 °F 88% 29.67 in 10.0 mi WNW 15.0 mph 19.6 mph N/A   Overcast
9:15 AM 73.4 °F - 69.8 °F 88% 29.68 in 10.0 mi NW 15.0 mph 19.6 mph N/A   Mostly Cloudy
9:35 AM 73.4 °F - 68.0 °F 83% 29.69 in 10.0 mi NW 15.0 mph 19.6 mph N/A   Mostly Cloudy
9:55 AM 73.4 °F - 64.4 °F 73% 29.70 in 10.0 mi NW 15.0 mph 20.7 mph N/A   Mostly Cloudy
10:15 AM 73.4 °F - 66.2 °F 78% 29.70 in 10.0 mi WNW 10.4 mph - N/A   Scattered Clouds
10:35 AM 73.4 °F - 64.4 °F 73% 29.71 in 10.0 mi NW 16.1 mph 20.7 mph N/A   Scattered Clouds
10:55 AM 73.4 °F - 64.4 °F 73% 29.72 in 10.0 mi WNW 12.7 mph 20.7 mph N/A   Scattered Clouds
11:15 AM 73.4 °F - 62.6 °F 69% 29.73 in 10.0 mi NW 15.0 mph 21.9 mph N/A   Mostly Cloudy
11:35 AM 71.6 °F - 62.6 °F 73% 29.74 in 10.0 mi WNW 12.7 mph 21.9 mph N/A   Mostly Cloudy
11:55 AM 73.4 °F - 64.4 °F 73% 29.74 in 10.0 mi NW 20.7 mph 25.3 mph N/A   Mostly Cloudy
12:15 PM 71.6 °F - 62.6 °F 73% 29.75 in 10.0 mi NW 16.1 mph 19.6 mph N/A   Mostly Cloudy
12:35 PM 73.4 °F - 64.4 °F 73% 29.76 in 10.0 mi NNW 15.0 mph 19.6 mph N/A   Mostly Cloudy
12:55 PM 71.6 °F - 62.6 °F 73% 29.76 in 10.0 mi WNW 12.7 mph 18.4 mph N/A   Mostly Cloudy
1:15 PM 73.4 °F - 62.6 °F 69% 29.76 in 10.0 mi WNW 11.5 mph 17.3 mph N/A   Mostly Cloudy
1:35 PM 73.4 °F - 62.6 °F 69% 29.76 in 10.0 mi NNW 11.5 mph 16.1 mph N/A   Mostly Cloudy
1:55 PM 73.4 °F - 60.8 °F 65% 29.77 in 10.0 mi NW 11.5 mph - N/A   Mostly Cloudy
2:15 PM 75.2 °F - 60.8 °F 61% 29.77 in 10.0 mi NW 15.0 mph 19.6 mph N/A   Scattered Clouds
2:35 PM 75.2 °F - 59.0 °F 57% 29.77 in 10.0 mi NW 16.1 mph - N/A   Clear
2:55 PM 75.2 °F - 60.8 °F 61% 29.77 in 10.0 mi WNW 15.0 mph 21.9 mph N/A   Partly Cloudy
3:15 PM 75.2 °F - 59.0 °F 57% 29.77 in 10.0 mi WNW 15.0 mph 20.7 mph N/A   Partly Cloudy
3:35 PM 75.2 °F - 57.2 °F 53% 29.77 in 10.0 mi WNW 10.4 mph 19.6 mph N/A   Partly Cloudy
3:55 PM 75.2 °F - 57.2 °F 53% 29.77 in 10.0 mi West 10.4 mph 21.9 mph N/A   Clear
4:15 PM 75.2 °F - 59.0 °F 57% 29.77 in 10.0 mi West 17.3 mph - N/A   Partly Cloudy
4:35 PM 75.2 °F - 57.2 °F 53% 29.77 in 10.0 mi WNW 13.8 mph 20.7 mph N/A   Clear
4:55 PM 75.2 °F - 57.2 °F 53% 29.77 in 10.0 mi WNW 9.2 mph 17.3 mph N/A   Partly Cloudy
5:15 PM 75.2 °F - 59.0 °F 57% 29.77 in 10.0 mi West 12.7 mph 19.6 mph N/A   Partly Cloudy
5:35 PM 75.2 °F - 57.2 °F 53% 29.77 in 10.0 mi WNW 13.8 mph 20.7 mph N/A   Clear
5:55 PM 75.2 °F - 55.4 °F 50% 29.77 in 10.0 mi West 9.2 mph - N/A   Clear
6:15 PM 75.2 °F - 53.6 °F 47% 29.77 in 10.0 mi WNW 10.4 mph 18.4 mph N/A   Clear
6:35 PM 75.2 °F - 55.4 °F 50% 29.77 in 10.0 mi West 11.5 mph - N/A   Clear
6:55 PM 73.4 °F - 55.4 °F 53% 29.77 in 10.0 mi West 6.9 mph - N/A   Clear
7:15 PM 73.4 °F - 55.4 °F 53% 29.77 in 10.0 mi West 8.1 mph - N/A   Clear
7:35 PM 71.6 °F - 55.4 °F 57% 29.77 in 10.0 mi West 6.9 mph - N/A   Clear
7:55 PM 71.6 °F - 55.4 °F 57% 29.77 in 10.0 mi WSW 5.8 mph - N/A   Clear
8:15 PM 69.8 °F - 55.4 °F 60% 29.77 in 10.0 mi WSW 4.6 mph - N/A   Clear
8:35 PM 69.8 °F - 55.4 °F 60% 29.77 in 10.0 mi WSW 4.6 mph - N/A   Clear
8:55 PM 66.2 °F - 57.2 °F 73% 29.77 in 10.0 mi SW 3.5 mph - N/A   Scattered Clouds
9:15 PM 66.2 °F - 55.4 °F 68% 29.77 in 10.0 mi SW 3.5 mph - N/A   Partly Cloudy
9:35 PM 66.2 °F - 55.4 °F 68% 29.78 in 10.0 mi SW 3.5 mph - N/A   Clear
9:55 PM 66.2 °F - 55.4 °F 68% 29.78 in 10.0 mi WSW 3.5 mph - N/A   Clear
10:15 PM 64.4 °F - 55.4 °F 73% 29.78 in 10.0 mi WSW 4.6 mph - N/A   Clear
10:35 PM 62.6 °F - 55.4 °F 77% 29.79 in 10.0 mi West 5.8 mph - N/A   Partly Cloudy
10:55 PM 62.6 °F - 55.4 °F 77% 29.78 in 10.0 mi West 5.8 mph - N/A   Scattered Clouds
11:15 PM 64.4 °F - 55.4 °F 73% 29.79 in 10.0 mi West 6.9 mph - N/A   Scattered Clouds
11:35 PM 66.2 °F - 55.4 °F 68% 29.79 in 10.0 mi WNW 9.2 mph - N/A   Partly Cloudy
11:55 PM 66.2 °F - 55.4 °F 68% 29.80 in 10.0 mi West 6.9 mph - N/A   Scattered Clouds